• Em Portugal
  • Lista de países
  • Para 7 dias
  • Temperatura da água
  • Mapas de satélite
  • Mapa do tempo
  • Widgets de tempo
  • user-avatar
    Iniciar Sessão

    Previsão horária em Yeghegnadzor

    Hoje, 26 Setembro, Terça-feira

    Tempo Temperatura Precipitação Vento Pressão Humidade
    00:00 +18°C° 0 mm 1 m/s 656 mmHg 65%
    01:00 +16°C° 0 mm 1 m/s 656 mmHg 66%
    02:00 +16°C° 0 mm 1 m/s 655 mmHg 66%
    03:00 +15°C° 0 mm 1 m/s 655 mmHg 67%
    04:00 +15°C° 0 mm 1 m/s 655 mmHg 66%
    05:00 +15°C° 0 mm 1 m/s 655 mmHg 65%
    06:00 +14°C° 0 mm 1 m/s 655 mmHg 65%
    07:00 +16°C° 0 mm 1 m/s 655 mmHg 55%
    08:00 +20°C° 0 mm 1 m/s 656 mmHg 46%
    09:00 +22°C° 0 mm 1 m/s 656 mmHg 37%
    10:00 +23°C° 0 mm 2 m/s 656 mmHg 33%
    11:00 +24°C° 0 mm 2 m/s 656 mmHg 29%
    12:00 +25°C° 0 mm 2 m/s 656 mmHg 25%
    13:00 +26°C° 0 mm 2 m/s 656 mmHg 24%
    14:00 +26°C° 0 mm 2 m/s 656 mmHg 24%
    15:00 +26°C° 0 mm 2 m/s 655 mmHg 24%
    16:00 +25°C° 0 mm 2 m/s 655 mmHg 29%
    17:00 +23°C° 0 mm 1 m/s 655 mmHg 34%
    18:00 +22°C° 0 mm 1 m/s 654 mmHg 40%
    19:00 +21°C° 0 mm 1 m/s 654 mmHg 44%
    20:00 +20°C° 0 mm 1 m/s 654 mmHg 49%
    21:00 +18°C° 0 mm 2 m/s 654 mmHg 54%
    22:00 +18°C° 0 mm 2 m/s 654 mmHg 55%
    23:00 +18°C° 0 mm 2 m/s 654 mmHg 56%

    Amanhã, 27 Setembro, Quarta-feira

    Tempo Temperatura Precipitação Vento Pressão Humidade
    00:00 +17°C° 0 mm 2 m/s 654 mmHg 57%
    01:00 +18°C° 0 mm 1 m/s 654 mmHg 58%
    02:00 +18°C° 0 mm 1 m/s 654 mmHg 58%
    03:00 +18°C° 0 mm 1 m/s 654 mmHg 59%
    04:00 +16°C° 0,1 mm 1 m/s 654 mmHg 59%
    05:00 +16°C° 0,1 mm 1 m/s 654 mmHg 59%
    06:00 +15°C° 0,1 mm 1 m/s 654 mmHg 60%
    07:00 +18°C° 0,2 mm 1 m/s 654 mmHg 54%
    08:00 +20°C° 0,2 mm 1 m/s 655 mmHg 48%
    09:00 +21°C° 0,2 mm 2 m/s 655 mmHg 42%
    10:00 +23°C° 0,1 mm 2 m/s 655 mmHg 40%
    11:00 +24°C° 0,1 mm 3 m/s 655 mmHg 37%
    12:00 +25°C° 0,1 mm 3 m/s 655 mmHg 34%
    13:00 +25°C° 0,1 mm 3 m/s 655 mmHg 33%
    14:00 +26°C° 0,1 mm 3 m/s 655 mmHg 32%
    15:00 +26°C° 0,1 mm 3 m/s 654 mmHg 31%
    16:00 +24°C° 0,2 mm 2 m/s 654 mmHg 38%
    17:00 +21°C° 0,2 mm 2 m/s 653 mmHg 45%
    18:00 +21°C° 0,2 mm 1 m/s 653 mmHg 52%
    19:00 +19°C° 0,3 mm 2 m/s 653 mmHg 57%
    20:00 +18°C° 0,3 mm 2 m/s 654 mmHg 62%
    21:00 +17°C° 0,3 mm 3 m/s 654 mmHg 67%
    22:00 +17°C° 0,1 mm 2 m/s 654 mmHg 69%
    23:00 +16°C° 0,1 mm 2 m/s 654 mmHg 71%

    Depois de amanhã, 28 Setembro, Quinta-feira

    Tempo Temperatura Precipitação Vento Pressão Humidade
    00:00 +16°C° 0,1 mm 2 m/s 653 mmHg 73%
    01:00 +16°C° 0 mm 2 m/s 653 mmHg 73%
    02:00 +15°C° 0 mm 2 m/s 653 mmHg 73%
    03:00 +15°C° 0 mm 1 m/s 653 mmHg 73%
    04:00 +15°C° 0 mm 1 m/s 653 mmHg 74%
    05:00 +14°C° 0 mm 1 m/s 653 mmHg 74%
    06:00 +14°C° 0 mm 1 m/s 653 mmHg 74%
    07:00 +15°C° 0 mm 2 m/s 654 mmHg 66%
    08:00 +17°C° 0 mm 2 m/s 654 mmHg 58%
    09:00 +19°C° 0 mm 2 m/s 655 mmHg 50%
    10:00 +20°C° 0 mm 2 m/s 655 mmHg 47%
    11:00 +21°C° 0 mm 3 m/s 655 mmHg 43%
    12:00 +22°C° 0 mm 3 m/s 655 mmHg 40%
    13:00 +22°C° 0,1 mm 3 m/s 655 mmHg 40%
    14:00 +22°C° 0,1 mm 3 m/s 655 mmHg 40%
    15:00 +24°C° 0,1 mm 3 m/s 655 mmHg 39%
    16:00 +21°C° 0,3 mm 2 m/s 655 mmHg 46%
    17:00 +20°C° 0,3 mm 2 m/s 655 mmHg 53%
    18:00 +18°C° 0,3 mm 2 m/s 655 mmHg 60%
    19:00 +18°C° 0,1 mm 2 m/s 655 mmHg 63%
    20:00 +17°C° 0,1 mm 2 m/s 655 mmHg 66%
    21:00 +16°C° 0,1 mm 3 m/s 656 mmHg 70%
    22:00 +16°C° 0,1 mm 3 m/s 656 mmHg 71%
    23:00 +16°C° 0,1 mm 2 m/s 656 mmHg 72%

    29 Setembro, Sexta-feira

    Tempo Temperatura Precipitação Vento Pressão Humidade
    00:00 +15°C° 0,1 mm 2 m/s 656 mmHg 73%
    01:00 +15°C° 0 mm 2 m/s 655 mmHg 74%
    02:00 +14°C° 0 mm 2 m/s 655 mmHg 75%
    03:00 +14°C° 0 mm 2 m/s 655 mmHg 76%
    04:00 +14°C° 0 mm 2 m/s 655 mmHg 77%
    05:00 +13°C° 0 mm 2 m/s 655 mmHg 77%
    06:00 +13°C° 0 mm 2 m/s 655 mmHg 77%
    07:00 +15°C° 0 mm 2 m/s 656 mmHg 69%
    08:00 +16°C° 0 mm 2 m/s 656 mmHg 61%
    09:00 +18°C° 0 mm 2 m/s 657 mmHg 53%
    10:00 +19°C° 0 mm 2 m/s 657 mmHg 50%
    11:00 +20°C° 0 mm 3 m/s 656 mmHg 48%
    12:00 +21°C° 0 mm 3 m/s 656 mmHg 45%
    13:00 +21°C° 0,1 mm 3 m/s 656 mmHg 44%
    14:00 +21°C° 0,1 mm 3 m/s 656 mmHg 43%
    15:00 +22°C° 0,1 mm 3 m/s 655 mmHg 42%
    16:00 +20°C° 0 mm 2 m/s 655 mmHg 47%
    17:00 +19°C° 0 mm 2 m/s 654 mmHg 51%
    18:00 +18°C° 0 mm 2 m/s 654 mmHg 56%
    19:00 +17°C° 0 mm 2 m/s 654 mmHg 59%
    20:00 +16°C° 0 mm 2 m/s 654 mmHg 62%
    21:00 +16°C° 0 mm 3 m/s 654 mmHg 65%
    22:00 +14°C° 0 mm 3 m/s 654 mmHg 65%
    23:00 +15°C° 0 mm 2 m/s 653 mmHg 65%

    30 Setembro, Sábado

    Tempo Temperatura Precipitação Vento Pressão Humidade
    00:00 +14°C° 0 mm 2 m/s 653 mmHg 66%
    01:00 +14°C° 0 mm 2 m/s 653 mmHg 63%
    02:00 +14°C° 0 mm 2 m/s 653 mmHg 61%
    03:00 +14°C° 0 mm 2 m/s 653 mmHg 59%
    04:00 +14°C° 0 mm 2 m/s 653 mmHg 57%
    05:00 +14°C° 0 mm 2 m/s 653 mmHg 56%
    06:00 +14°C° 0 mm 2 m/s 652 mmHg 55%
    07:00 +16°C° 0 mm 2 m/s 653 mmHg 50%
    08:00 +17°C° 0 mm 2 m/s 653 mmHg 45%
    09:00 +19°C° 0 mm 2 m/s 654 mmHg 40%
    10:00 +20°C° 0,1 mm 2 m/s 654 mmHg 38%
    11:00 +21°C° 0,1 mm 3 m/s 653 mmHg 37%
    12:00 +22°C° 0,1 mm 3 m/s 653 mmHg 36%
    13:00 +22°C° 0,8 mm 3 m/s 653 mmHg 38%
    14:00 +22°C° 0,8 mm 3 m/s 652 mmHg 41%
    15:00 +21°C° 0,8 mm 3 m/s 652 mmHg 44%
    16:00 +20°C° 0,7 mm 2 m/s 651 mmHg 48%
    17:00 +19°C° 0,7 mm 2 m/s 651 mmHg 52%
    18:00 +19°C° 0,7 mm 1 m/s 651 mmHg 56%
    19:00 +18°C° 0,1 mm 1 m/s 651 mmHg 58%
    20:00 +18°C° 0,1 mm 1 m/s 652 mmHg 59%
    21:00 +16°C° 0,1 mm 1 m/s 652 mmHg 61%
    22:00 +16°C° 0 mm 1 m/s 652 mmHg 60%
    23:00 +15°C° 0 mm 1 m/s 652 mmHg 58%

    1 Outubro, Domingo

    Tempo Temperatura Precipitação Vento Pressão Humidade
    00:00 +15°C° 0 mm 1 m/s 652 mmHg 57%
    01:00 +15°C° 0 mm 2 m/s 652 mmHg 57%
    02:00 +14°C° 0 mm 2 m/s 652 mmHg 56%
    03:00 +14°C° 0 mm 2 m/s 652 mmHg 56%
    04:00 +14°C° 0 mm 2 m/s 652 mmHg 58%
    05:00 +14°C° 0 mm 2 m/s 652 mmHg 61%
    06:00 +13°C° 0 mm 2 m/s 652 mmHg 63%
    07:00 +15°C° 0 mm 2 m/s 653 mmHg 57%
    08:00 +17°C° 0 mm 2 m/s 653 mmHg 52%
    09:00 +19°C° 0 mm 2 m/s 654 mmHg 46%
    10:00 +20°C° 0 mm 2 m/s 654 mmHg 43%
    11:00 +21°C° 0 mm 3 m/s 654 mmHg 40%
    12:00 +22°C° 0 mm 3 m/s 654 mmHg 36%
    13:00 +22°C° 0 mm 3 m/s 654 mmHg 36%
    14:00 +24°C° 0 mm 3 m/s 654 mmHg 35%
    15:00 +24°C° 0 mm 2 m/s 653 mmHg 34%
    16:00 +21°C° 0,1 mm 2 m/s 653 mmHg 38%
    17:00 +20°C° 0,1 mm 2 m/s 653 mmHg 42%
    18:00 +20°C° 0,1 mm 1 m/s 653 mmHg 46%
    19:00 +19°C° 0 mm 1 m/s 653 mmHg 47%
    20:00 +19°C° 0 mm 1 m/s 653 mmHg 48%
    21:00 +18°C° 0 mm 1 m/s 653 mmHg 49%
    22:00 +18°C° 0 mm 1 m/s 653 mmHg 49%
    23:00 +16°C° 0 mm 2 m/s 653 mmHg 49%
    Mostrar mais